Home   Weather   Emmen   Past weeks

Flag for Netherlands Past Weather in Emmen, Netherlands — Yesterday and Last 2 Weeks

Now
29 °F

Passing clouds.


Feels Like: 29 °F
Forecast: 22 / 33 °F
Wind: 1 mph from Southeast

Location: Meppen

Current Time: Dec 5, 2016 at 11:36:46 am

Latest Report: Dec 5, 2016 at 11:00 am


Visibility: 16 mi

Pressure: 30.35 "Hg

Humidity: 95%

Dew Point: 28 °F

Location of EmmenLocation

Past Weather in Emmen — Graph

°F

Emmen Temperature Yesterday

Maximum temperature yesterday: 36 °F (at 2:00 pm)
Minimum temperature yesterday: 23 °F (at 9:00 am)
Average temperature yesterday: 28 °F

High & Low Weather Summary for the Past Weeks

 TemperatureHumidityPressure
High56 °F (Nov 21, 2:00 pm)97% (Nov 26, 9:00 am)30.61 "Hg (Nov 26, 9:00 am)
Low17 °F (Dec 5, 9:00 am)53% (Nov 20, 5:00 pm)29.18 "Hg (Nov 20, 2:00 pm)
Average38 °F86%30.17 "Hg
* Reported Nov 20 9:00 am — Dec 5 9:00 am, Emmen, Weather by CustomWeather, © 2016

Note: Actual official high and low records may vary slightly from our data, if they occured in-between our weather recording intervals... More about our weather records

Advertising

Emmen Weather History for the Previous 24 Hours

Scroll right to see more
 ConditionsComfort  
Time TempWeatherWind HumidityBarometerVisibility
9:00 am
Mon, Dec 5
17 °FPassing clouds.No wind90%30.35 "Hg12 mi
8:00 am18 °FPassing clouds.1 mph91%30.35 "Hg9 mi
6:00 am19 °FFog.1 mph90%30.34 "Hg11 mi
5:00 am20 °FCold.1 mph93%30.35 "Hg4 mi
3:00 am24 °FCold.1 mph94%30.36 "Hg1 mi
2:00 am25 °FChilly.1 mph94%30.36 "Hg2 mi
12:00 am24 °FCold.1 mph96%30.39 "Hg0 mi
11:00 pm
Sun, Dec 4
27 °FChilly.1 mph96%30.39 "Hg1 mi
9:00 pm29 °FChilly.1 mph96%30.39 "Hg0 mi
8:00 pm29 °FChilly.1 mph95%30.40 "Hg1 mi
6:00 pm30 °FChilly.1 mph94%30.40 "Hg2 mi
5:00 pm31 °FChilly.1 mph91%30.39 "Hg4 mi
3:00 pm36 °FChilly.2 mph81%30.39 "Hg5 mi
2:00 pm36 °FChilly.N/A87%30.40 "Hg5 mi
12:00 pm31 °FChilly.1 mph95%30.42 "Hg4 mi
11:00 am28 °FChilly.1 mph94%30.43 "Hg3 mi
Weather by CustomWeather, © 2016

See weather overviewHow to use our weather pages